Printer-friendly version

IAU Minor Planet Center

Minor Planet Center

MPEC 2008-T120: 2008 TT26

The following Minor Planet Electronic Circular may be linked-to from your own Web pages, but must not otherwise be redistributed electronically.


Read MPEC 2008-T119 Read MPEC 2008-T121


M.P.E.C. 2008-T120                               Issued 2008 Oct. 10, 22:24 UT

     The Minor Planet Electronic Circulars contain information on unusual
         minor planets and routine data on comets.  They are published
   on behalf of Commission 20 of the International Astronomical Union by the
          Minor Planet Center, Smithsonian Astrophysical Observatory,
                          Cambridge, MA 02138, U.S.A.

             Prepared using the Tamkin Foundation Computer Network

                              MPC@CFA.HARVARD.EDU
          URL http://www.cfa.harvard.edu/iau/mpc.html  ISSN 1523-6714

                                   2008 TT26

Observations:
     K08T26T* C2008 10 09.17165 20 50 57.63 +44 18 46.9          19.7   ET120704
     K08T26T  C2008 10 09.18457 20 50 59.22 +44 19 02.5          20.6   ET120704
     K08T26T  C2008 10 09.19745 20 51 00.83 +44 19 16.9          20.4   ET120704
     K08T26T  C2008 10 09.21035 20 51 02.41 +44 19 32.2          20.0   ET120704
     K08T26T  C2008 10 10.10406 20 54 24.39 +44 42 41.5          19.8 V ET120H55
     K08T26T  C2008 10 10.10809 20 54 25.02 +44 42 48.3          19.5 V ET120H55
     K08T26T  C2008 10 10.11206 20 54 25.57 +44 42 52.9          19.6 V ET120H55
     K08T26T  C2008 10 10.84102 20 57 32.35 +45 03 08.7                 ET120118
     K08T26T  C2008 10 10.84455 20 57 32.99 +45 03 13.9                 ET120118
     K08T26T  C2008 10 10.84781 20 57 33.68 +45 03 18.6                 ET120118

Observer details:
118 Modra.  Observer S. Gajdos.  0.6-m f/5.5 reflector + CCD.
704 Lincoln Laboratory ETS, New Mexico.  Observers M. Bezpalko, D. Torres,
    R. Kracke, G. Spitz, J. Kistler.  Measurers J. Stuart, S. Scruggs.  1.0-m
    f/2.15 reflector + CCD.
H55 Astronomical Research Observatory, Charleston.  Observer R. Holmes.
    Measurer S. Mattson.  0.81-m f/4.0 astrograph + CCD.

Orbital elements:
2008 TT26                                                Earth MOID = 0.0076 AU
Epoch 2008 Nov. 30.0 TT = JDT 2454800.5                 MPC
M  17.85386              (2000.0)            P               Q
n   0.62360497     Peri.  189.86494     +0.76183341     -0.64325611
a   1.3568432      Node   210.59619     +0.60407664     +0.74805292
e   0.2633405      Incl.    8.62877     +0.23388303     +0.16321277
P   1.58           H   23.9           G   0.15           U   9
Residuals in seconds of arc
081009 704  0.2-  0.0     081010 H55  0.2-  0.3+    081010 118  0.2-  0.3-
081009 704  0.3+  0.1-    081010 H55  0.1-  1.2+    081010 118  0.1+  0.5-
081009 704  0.5+  0.7-    081010 H55  0.8-  0.1+
081009 704  0.1-  0.1+    081010 118  0.6+  0.1-

Ephemeris:
2008 TT26                a,e,i = 1.36, 0.26, 9                   q = 0.9995
Date    TT    R. A. (2000) Decl.     Delta      r     Elong.  Phase     V
2008 10 11    20 58.37   +45 08.3    0.0423   1.017   114.6    63.2    19.3
2008 10 13    21 10.10   +46 17.9    0.0357   1.014   115.6    62.6    18.9
2008 10 15    21 28.52   +47 49.0    0.0291   1.011   117.4    61.1    18.4
2008 10 17    22 00.04   +49 45.6    0.0227   1.008   121.0    57.9    17.8
2008 10 19    23 00.65   +51 40.2    0.0167   1.006   127.7    51.5    16.9
2008 10 21    01 02.58   +49 16.3    0.0116   1.004   140.5    39.1    15.8
2008 10 23    03 42.26   +28 55.6    0.00934  1.003   148.7    31.0    15.1
2008 10 25    05 21.37   +00 59.3    0.0116   1.002   128.5    50.9    16.1
2008 10 27    06 10.25   -14 21.9    0.0166   1.001   113.8    65.3    17.3
2008 10 29    06 36.83   -21 53.6    0.0226   1.000   106.5    72.2    18.2
2008 10 31    06 53.02   -26 03.2    0.0289   1.000   102.8    75.6    18.8
2008 11 02    07 03.73   -28 37.4    0.0354   1.000   100.9    77.1    19.3
2008 11 04    07 11.26   -30 20.6    0.0419   1.000    99.9    77.7    19.7
2008 11 06    07 16.79   -31 33.7    0.0485   1.000    99.5    77.8    20.0
2008 11 08    07 20.96   -32 27.7    0.0550   1.001    99.5    77.4    20.3
2008 11 10    07 24.18   -33 08.8    0.0615   1.002    99.7    76.8    20.5
2008 11 12    07 26.70   -33 40.9    0.0679   1.004   100.1    76.1    20.7
2008 11 14    07 28.67   -34 06.2    0.0743   1.006   100.7    75.2    20.9
2008 11 16    07 30.19   -34 26.4    0.0806   1.008   101.3    74.2    21.0
2008 11 18    07 31.34   -34 42.5    0.0868   1.010   102.1    73.1    21.2
2008 11 20    07 32.14   -34 55.1    0.0930   1.013   102.9    72.0    21.3
2008 11 22    07 32.64   -35 04.6    0.0990   1.016   103.8    70.8    21.4
2008 11 24    07 32.87   -35 11.1    0.105    1.019   104.7    69.5    21.5
2008 11 26    07 32.85   -35 14.8    0.111    1.023   105.7    68.3    21.6
2008 11 28    07 32.61   -35 15.8    0.117    1.026   106.8    67.0    21.7
2008 11 30    07 32.16   -35 14.1    0.122    1.030   107.9    65.6    21.7
2008 12 02    07 31.52   -35 09.7    0.128    1.035   109.0    64.3    21.8
2008 12 04    07 30.72   -35 02.7    0.133    1.039   110.2    62.9    21.8
2008 12 06    07 29.76   -34 52.9    0.139    1.044   111.4    61.5    21.9
2008 12 08    07 28.67   -34 40.5    0.144    1.049   112.6    60.1    22.0
2008 12 10    07 27.46   -34 25.3    0.150    1.054   113.9    58.7    22.0

Sonia Keys                   (C) Copyright 2008 MPC           M.P.E.C. 2008-T120

Read MPEC 2008-T119 Read MPEC 2008-T121


Our Web policy. Index to the CBAT/MPC/ICQ pages.


Valid HTML 4.01!